EW9551 Weather Reports


Display with metric or nautical units.
time (UTC)temp
F
wind
direction
speed
MPH
gust
MPH
rain 1hr
in
rain 24hr
in
rain mn
in
humidity
%
barometer
mb
20260831104342 79 347 0.0 2.0 0.00 0.01 0.01 55 980.1
20260831102724 79 57 0.0 0.0 0.00 0.01 0.01 54 980.1
20260831094340 78 63 0.0 1.0 0.00 0.01 0.01 58 980.2
20260831091340 76 346 0.0 0.0 0.00 0.01 0.01 62 980.4
20260831084341 75 50 0.0 7.0 0.00 0.01 0.01 61 980.2
20260831081339 73 355 0.0 3.0 0.00 0.01 0.01 67 980.1
20260831074339 71 345 0.0 4.0 0.00 0.01 0.01 72 979.9
20260831072718 67 348 0.0 0.0 0.00 0.01 0.01 83 979.6
20260831064335 65 16 0.0 0.0 0.00 0.01 0.01 88 979.6
20260831061334 64 28 0.0 0.0 0.00 0.01 0.01 92 979.3
20260831054333 64 80 0.0 0.0 0.00 0.01 0.01 89 979.0
20260831051332 64 86 0.0 0.0 0.00 0.01 0.01 88 978.7
20260831044333 65 88 0.0 0.0 0.01 0.01 0.01 88 978.4
20260831041334 66 86 0.0 0.0 0.01 0.01 0.01 88 978.3
20260831034333 66 85 0.0 0.0 0.00 0.00 0.00 87 978.3
20260831031332 66 86 0.0 0.0 0.00 0.00 0.00 86 978.4
20260831024333 66 0 0.0 0.0 0.00 0.00 0.00 86 978.2
20260831021331 67 85 0.0 0.0 0.00 0.00 0.00 87 978.1
20260831014330 67 0 0.0 0.0 0.00 0.00 0.00 86 978.0
20260831011332 67 48 0.0 0.0 0.00 0.00 0.00 85 978.0
20260831004332 68 0 0.0 0.0 0.00 0.00 0.00 84 977.9
20260831001332 69 47 0.0 1.0 0.00 0.00 0.00 82 977.8
20260830234329 69 0 0.0 0.0 0.00 0.00 0.00 80 977.8
20260830231331 70 342 0.0 1.0 0.00 0.00 0.00 78 977.7
20260830224331 71 335 0.0 0.0 0.00 0.00 0.00 75 977.7
20260830221332 72 333 0.0 0.0 0.00 0.00 0.00 73 976.9
20260830214332 73 267 0.0 0.0 0.00 0.00 0.00 71 976.4
20260830211330 73 0 0.0 8.0 0.00 0.00 0.00 69 975.6
20260830205709 73 0 0.0 0.0 0.00 0.00 0.00 64 975.3
20260830201326 74 134 0.0 0.0 0.00 0.00 0.00 64 974.6
20260830194318 76 132 0.0 0.0 0.00 0.00 0.00 62 974.3
20260830192713 76 0 0.0 0.0 0.00 0.00 0.00 62 974.1
20260830184317 78 112 0.0 0.0 0.00 0.00 0.00 61 973.8
20260830181312 80 111 0.0 0.0 0.00 0.00 0.00 56 973.6
20260830174311 82 112 0.0 0.0 0.00 0.00 0.00 53 973.3
20260830171309 83 111 0.0 0.0 0.00 0.00 0.00 50 973.3
20260830164307 85 119 0.0 0.0 0.00 0.00 0.00 47 973.4
20260830161305 84 121 0.0 2.0 0.00 0.00 0.00 46 973.6
20260830154305 84 43 0.0 3.0 0.00 0.00 0.00 47 973.7
20260830151305 85 70 0.0 0.0 0.00 0.00 0.00 46 973.8
20260830144316 85 90 0.0 0.0 0.00 0.00 0.00 48 974.0
20260830141308 85 64 0.0 0.0 0.00 0.00 0.00 46 974.4
20260830134303 86 286 0.0 0.0 0.00 0.00 0.00 45 974.7
20260830131303 86 259 0.0 0.0 0.00 0.00 0.00 44 975.1
20260830124302 88 209 0.0 0.0 0.00 0.00 0.00 43 975.3
20260830121304 86 177 0.0 2.0 0.00 0.00 0.00 46 975.4
20260830114302 88 0 0.0 0.0 0.00 0.00 0.00 46 975.7
20260830111301 86 199 0.0 0.0 0.00 0.00 0.00 50 976.0